Location: Brompton
(51.4000°N, 0.5333°E)
Time: 09:35:57
(UTC+00:00)

Okean 3 - Pass Details

Date: 11 May 2021
Orbit: 575 x 601 km, 82.5° (Epoch: 13 June)

Event Time Altitude Azimuth Distance (km) Brightness Sun altitude
Exits shadow 23:50:48 48° 135° (SE) 782 3.7 -20.5°
Maximum altitude 23:51:33 56° 95° (E) 713 3.7 -20.5°
Drops below altitude 10° 23:55:43 10° 18° (NNE) 1,927 7.1 -20.5°
Sets 23:57:56 0° 14° (NNE) 2,828 8.4 -20.5°
